Satellite: FALCON
Catalog number: 30776
Epoch time:      09147.64258132
Element set:    0584
Inclination:      035.4341 deg
RA of node:       224.0584 deg
Eccentricity:    0.0000742
Arg of perigee:   029.2482 deg
Mean anomaly:     330.8275 deg
Mean motion:   15.03245789 rev/day
Decay rate:       2.82e-06 rev/day^2
Epoch rev:           12200
Checksum:              275

Satellite: MAST
Catalog number: 31126
Epoch time:      09148.69041334
Element set:     606
Inclination:      097.9887 deg
RA of node:       204.3859 deg
Eccentricity:    0.0094681
Arg of perigee:   341.1877 deg
Mean anomaly:     018.5812 deg
Mean motion:   14.53496368 rev/day
Decay rate:      -1.92e-06 rev/day^2
Epoch rev:           11220
Checksum:              317

Satellite: CAPE1
Catalog number: 31130
Epoch time:      09148.64107794
Element set:     610
Inclination:      097.9930 deg
RA of node:       202.5700 deg
Eccentricity:    0.0102041
Arg of perigee:   346.7853 deg
Mean anomaly:     013.0663 deg
Mean motion:   14.52059356 rev/day
Decay rate:       1.11e-06 rev/day^2
Epoch rev:           11185
Checksum:              260

Satellite: COMPASS
Catalog number: 32787
Epoch time:      09147.30101792
Element set:    0369
Inclination:      097.9416 deg
RA of node:       211.2999 deg
Eccentricity:    0.0016984
Arg of perigee:   099.3982 deg
Mean anomaly:     260.9160 deg
Mean motion:   14.81604570 rev/day
Decay rate:       3.77e-06 rev/day^2
Epoch rev:           05835
Checksum:              333

Satellite: AAUSAT2
Catalog number: 32788
Epoch time:      09148.75628621
Element set:     369
Inclination:      097.9405 deg
RA of node:       212.7967 deg
Eccentricity:    0.0016827
Arg of perigee:   096.3165 deg
Mean anomaly:     263.9963 deg
Mean motion:   14.81727485 rev/day
Decay rate:       3.62e-06 rev/day^2
Epoch rev:            5857
Checksum:              359

Satellite: DO-64
Catalog number: 32789
Epoch time:      09147.69723374
Element set:    0379
Inclination:      097.9484 deg
RA of node:       211.8972 deg
Eccentricity:    0.0016855
Arg of perigee:   097.1485 deg
Mean anomaly:     263.1627 deg
Mean motion:   14.81706782 rev/day
Decay rate:       5.24e-06 rev/day^2
Epoch rev:           05841
Checksum:              360

Satellite: CO-66
Catalog number: 32791
Epoch time:      09147.20637106
Element set:    0365
Inclination:      097.9455 deg
RA of node:       211.2385 deg
Eccentricity:    0.0017146
Arg of perigee:   096.2689 deg
Mean anomaly:     264.0467 deg
Mean motion:   14.81434310 rev/day
Decay rate:       2.68e-06 rev/day^2
Epoch rev:           05830
Checksum:              314

Satellite: RS-30
Catalog number: 32953
Epoch time:      09148.79174149
Element set:     315
Inclination:      082.5002 deg
RA of node:       268.6707 deg
Eccentricity:    0.0018475
Arg of perigee:   218.1318 deg
Mean anomaly:     141.8454 deg
Mean motion:   12.43001279 rev/day
Decay rate:        1.0e-07 rev/day^2
Epoch rev:            4598
Checksum:              294

Satellite: OBJECTA
Catalog number: 35001
Epoch time:      09148.61177061
Element set:      12
Inclination:      040.4573 deg
RA of node:       357.7111 deg
Eccentricity:    0.0024469
Arg of perigee:   012.6652 deg
Mean anomaly:     347.5288 deg
Mean motion:   15.38752457 rev/day
Decay rate:        1.0e-08 rev/day^2
Epoch rev:             133
Checksum:              261

Satellite: OBJECTB
Catalog number: 35002
Epoch time:      09147.95872341
Element set:    0015
Inclination:      040.4707 deg
RA of node:       001.5554 deg
Eccentricity:    0.0027307
Arg of perigee:   012.3087 deg
Mean anomaly:     347.8394 deg
Mean motion:   15.39532209 rev/day
Decay rate:      1.260e-05 rev/day^2
Epoch rev:           00122
Checksum:              257

Satellite: OBJECTC
Catalog number: 35003
Epoch time:      09148.67075833
Element set:      13
Inclination:      040.4712 deg
RA of node:       357.2719 deg
Eccentricity:    0.0029455
Arg of perigee:   020.3967 deg
Mean anomaly:     339.8533 deg
Mean motion:   15.39805150 rev/day
Decay rate:      1.633e-05 rev/day^2
Epoch rev:             133
Checksum:              279

Satellite: OBJECTD
Catalog number: 35004
Epoch time:      09148.79992525
Element set:       8
Inclination:      040.4633 deg
RA of node:       356.4833 deg
Eccentricity:    0.0029153
Arg of perigee:   021.7957 deg
Mean anomaly:     338.4090 deg
Mean motion:   15.39915758 rev/day
Decay rate:      3.280e-05 rev/day^2
Epoch rev:             135
Checksum:              303

Satellite: OBJECTE
Catalog number: 35005
Epoch time:      09147.95785392
Element set:    0023
Inclination:      040.4764 deg
RA of node:       001.5621 deg
Eccentricity:    0.0028052
Arg of perigee:   013.1386 deg
Mean anomaly:     347.0155 deg
Mean motion:   15.39716393 rev/day
Decay rate:      3.054e-05 rev/day^2
Epoch rev:           00122
Checksum:              263

/EX



_______________________________________________
Via the Keps mailing list courtesy of AMSAT-NA
http://amsat.org/mailman/listinfo/keps

--- ViaMAIL!/WC v1.60d
 * Origin: Chowdanet (401-724-4410) telnet://chowdanet.com  (1:323/120)